AEZ2118 LICB-LIRF

Flight info

Callsign AEZ2118
Flight time 0h 58m
Altitude 18000
Route OBAXU N982 LIBRO/N0448F340 DCT BEROL DCT ENSOT DCT PNZ/N0370F180 M726 LAT
Aircraft B738/M-SDE2E3FGHIRWXY/LB1

Departure

Time 2026-05-06 12:22
Airport Comiso Airport (LICB)

Arrival

Time 2026-05-06 13:21
Airport Rome–Fiumicino Leonardo da Vinci International Airport (LIRF)
Time Latitude Longitude Altitude Speed Heading
2026-05-06 12:00 36.99741 14.60698 720 ft 0 kts 351°
2026-05-06 12:18 36.99738 14.60726 720 ft 9 kts 130°
2026-05-06 12:18 36.99678 14.60755 720 ft 9 kts 166°
2026-05-06 12:18 36.99616 14.60740 720 ft 10 kts 199°
2026-05-06 12:19 36.99534 14.60703 722 ft 15 kts 202°
2026-05-06 12:19 36.99437 14.60633 722 ft 16 kts 219°
2026-05-06 12:19 36.99352 14.60545 724 ft 16 kts 225°
2026-05-06 12:19 36.99278 14.60435 721 ft 18 kts 230°
2026-05-06 12:20 36.99183 14.60293 720 ft 24 kts 230°
2026-05-06 12:20 36.99074 14.60131 719 ft 24 kts 231°
2026-05-06 12:20 36.98972 14.59977 720 ft 23 kts 229°
2026-05-06 12:20 36.98873 14.59832 724 ft 19 kts 233°
2026-05-06 12:21 36.98841 14.59706 724 ft 10 kts 219°
2026-05-06 12:21 36.98814 14.59750 723 ft 9 kts 56°
2026-05-06 12:21 36.98856 14.59808 722 ft 9 kts 51°
2026-05-06 12:21 36.98909 14.59886 721 ft 24 kts 49°
2026-05-06 12:22 36.99165 14.60265 719 ft 91 kts 50°
2026-05-06 12:22 36.99704 14.61076 723 ft 148 kts 52°
2026-05-06 12:22 37.00373 14.62126 1175 ft 158 kts 57°
2026-05-06 12:22 37.01101 14.63178 1809 ft 170 kts 45°
2026-05-06 12:23 37.02318 14.63682 2299 ft 202 kts 359°
2026-05-06 12:23 37.03765 14.63349 2742 ft 226 kts 349°
2026-05-06 12:23 37.05349 14.62819 3071 ft 242 kts 345°
2026-05-06 12:23 37.07044 14.62234 3285 ft 263 kts 346°
2026-05-06 12:24 37.08887 14.61623 3730 ft 279 kts 346°
2026-05-06 12:24 37.10773 14.61023 4541 ft 280 kts 347°
2026-05-06 12:24 37.12670 14.60441 5341 ft 280 kts 347°
2026-05-06 12:24 37.14587 14.59870 6076 ft 285 kts 346°
2026-05-06 12:25 37.16534 14.59303 6812 ft 291 kts 346°
2026-05-06 12:25 37.18516 14.58734 7581 ft 292 kts 346°
2026-05-06 12:25 37.20506 14.58169 8411 ft 294 kts 346°
2026-05-06 12:25 37.22504 14.57607 9298 ft 295 kts 345°
2026-05-06 12:26 37.24517 14.57043 10102 ft 298 kts 345°
2026-05-06 12:26 37.26588 14.56459 10534 ft 317 kts 345°
2026-05-06 12:26 37.28825 14.55828 10724 ft 341 kts 345°
2026-05-06 12:26 37.31208 14.55158 11064 ft 357 kts 345°
2026-05-06 12:27 37.33648 14.54477 11789 ft 361 kts 345°
2026-05-06 12:27 37.36106 14.53792 12585 ft 363 kts 344°
2026-05-06 12:27 37.38578 14.53103 13378 ft 366 kts 344°
2026-05-06 12:27 37.41082 14.52403 14138 ft 370 kts 344°
2026-05-06 12:28 37.43610 14.51695 14833 ft 375 kts 344°
2026-05-06 12:28 37.46174 14.50976 15536 ft 380 kts 344°
2026-05-06 12:28 37.48766 14.50249 16246 ft 384 kts 344°
2026-05-06 12:28 37.51390 14.49512 16940 ft 389 kts 344°
2026-05-06 12:29 37.54044 14.48766 17606 ft 393 kts 344°
2026-05-06 12:29 37.56695 14.48021 18276 ft 398 kts 344°
2026-05-06 12:29 37.59412 14.47256 18887 ft 402 kts 344°
2026-05-06 12:29 37.62139 14.46448 19539 ft 403 kts 341°
2026-05-06 12:30 37.64773 14.45243 20159 ft 403 kts 334°
2026-05-06 12:30 37.67359 14.43845 20747 ft 406 kts 333°
2026-05-06 12:30 37.69954 14.42396 21344 ft 410 kts 333°
2026-05-06 12:30 37.72574 14.40927 21940 ft 413 kts 333°
2026-05-06 12:31 37.75207 14.39459 22536 ft 416 kts 333°
2026-05-06 12:31 37.77872 14.37987 23102 ft 420 kts 333°
2026-05-06 12:31 37.80573 14.36504 23574 ft 426 kts 333°
2026-05-06 12:31 37.83300 14.35014 24052 ft 428 kts 333°
2026-05-06 12:32 37.86035 14.33524 24620 ft 428 kts 333°
2026-05-06 12:32 37.88769 14.32040 25207 ft 427 kts 333°
2026-05-06 12:32 37.91503 14.30551 25661 ft 429 kts 333°
2026-05-06 12:32 37.94248 14.29051 26091 ft 431 kts 333°
2026-05-06 12:33 37.97006 14.27545 26520 ft 433 kts 333°
2026-05-06 12:33 37.99787 14.26028 26958 ft 435 kts 333°
2026-05-06 12:33 38.02562 14.24513 27461 ft 435 kts 333°
2026-05-06 12:33 38.05353 14.22988 27872 ft 438 kts 333°
2026-05-06 12:34 38.08160 14.21452 28272 ft 440 kts 333°
2026-05-06 12:34 38.10981 14.19906 28590 ft 444 kts 333°
2026-05-06 12:34 38.13827 14.18345 28961 ft 446 kts 333°
2026-05-06 12:34 38.16679 14.16781 29389 ft 447 kts 333°
2026-05-06 12:35 38.19497 14.15234 29826 ft 447 kts 333°
2026-05-06 12:35 38.22345 14.13670 30327 ft 445 kts 332°
2026-05-06 12:35 38.25171 14.12118 30852 ft 441 kts 332°
2026-05-06 12:35 38.27972 14.10578 31370 ft 437 kts 332°
2026-05-06 12:36 38.30757 14.09044 31826 ft 435 kts 332°
2026-05-06 12:36 38.33531 14.07514 32258 ft 434 kts 331°
2026-05-06 12:36 38.36298 14.05986 32706 ft 432 kts 331°
2026-05-06 12:36 38.39045 14.04469 33170 ft 429 kts 331°
2026-05-06 12:37 38.41779 14.02958 33605 ft 427 kts 330°
2026-05-06 12:37 38.44501 14.01451 33970 ft 427 kts 330°
2026-05-06 12:37 38.50001 13.98398 33992 ft 432 kts 330°
2026-05-06 12:38 38.55467 13.95368 33979 ft 424 kts 330°
2026-05-06 12:38 38.60879 13.92360 34001 ft 425 kts 330°
2026-05-06 12:39 38.66301 13.89339 34003 ft 425 kts 330°
2026-05-06 12:39 38.71737 13.86306 33994 ft 426 kts 330°
2026-05-06 12:40 38.77187 13.83261 33993 ft 429 kts 330°
2026-05-06 12:40 38.82676 13.80192 34008 ft 432 kts 330°
2026-05-06 12:41 38.88204 13.77088 34003 ft 435 kts 330°
2026-05-06 12:41 38.93775 13.73958 34002 ft 438 kts 330°
2026-05-06 12:42 38.99369 13.70813 34006 ft 440 kts 330°
2026-05-06 12:42 39.04976 13.67655 33996 ft 440 kts 330°
2026-05-06 12:43 39.10567 13.64501 33992 ft 438 kts 330°
2026-05-06 12:43 39.16139 13.61352 33997 ft 436 kts 330°
2026-05-06 12:44 39.21678 13.58215 33996 ft 434 kts 330°
2026-05-06 12:44 39.27195 13.55084 34001 ft 433 kts 329°
2026-05-06 12:45 39.32666 13.51974 33999 ft 432 kts 329°
2026-05-06 12:46 39.40924 13.47268 34008 ft 433 kts 329°
2026-05-06 12:46 39.46453 13.44110 34010 ft 436 kts 329°
2026-05-06 12:47 39.52011 13.40931 34014 ft 438 kts 328°
2026-05-06 12:47 39.57602 13.37728 34008 ft 440 kts 328°
2026-05-06 12:48 39.63219 13.34505 34007 ft 442 kts 328°
2026-05-06 12:48 39.68846 13.31271 34009 ft 443 kts 328°
2026-05-06 12:49 39.74481 13.28027 34024 ft 443 kts 329°
2026-05-06 12:49 39.80110 13.24780 34009 ft 442 kts 329°
2026-05-06 12:50 39.85727 13.21534 33999 ft 441 kts 328°
2026-05-06 12:50 39.91317 13.18298 34004 ft 439 kts 328°
2026-05-06 12:51 39.96880 13.15071 34013 ft 437 kts 328°
2026-05-06 12:51 40.02436 13.11827 34001 ft 440 kts 327°
2026-05-06 12:52 40.08106 13.08517 34012 ft 450 kts 328°
2026-05-06 12:52 40.13822 13.05205 34000 ft 449 kts 328°
2026-05-06 12:53 40.19534 13.02036 34005 ft 455 kts 334°
2026-05-06 12:53 40.25859 13.00618 34015 ft 468 kts 349°
2026-05-06 12:54 40.32377 13.00272 33998 ft 468 kts 350°
2026-05-06 12:54 40.38862 12.99902 34006 ft 465 kts 349°
2026-05-06 12:55 40.45314 12.99421 34022 ft 463 kts 347°
2026-05-06 12:55 40.51741 12.98919 33694 ft 465 kts 348°
2026-05-06 12:55 40.54972 12.98667 33093 ft 463 kts 348°
2026-05-06 12:56 40.58179 12.98412 32459 ft 461 kts 348°
2026-05-06 12:56 40.61372 12.98151 31786 ft 460 kts 348°
2026-05-06 12:56 40.64565 12.97888 31200 ft 458 kts 348°
2026-05-06 12:56 40.67730 12.97629 30699 ft 454 kts 349°
2026-05-06 12:57 40.70869 12.97373 30196 ft 450 kts 349°
2026-05-06 12:57 40.73984 12.97118 29630 ft 447 kts 349°
2026-05-06 12:57 40.77073 12.96865 29075 ft 443 kts 349°
2026-05-06 12:57 40.80129 12.96614 28560 ft 438 kts 349°
2026-05-06 12:58 40.83153 12.96365 28061 ft 434 kts 349°
2026-05-06 12:58 40.86156 12.96118 27538 ft 430 kts 349°
2026-05-06 12:58 40.89131 12.95877 27024 ft 427 kts 351°
2026-05-06 12:58 40.92114 12.95954 26476 ft 432 kts
2026-05-06 12:59 40.95107 12.96662 25789 ft 439 kts
2026-05-06 12:59 40.98083 12.97582 25221 ft 439 kts
2026-05-06 12:59 41.01043 12.98529 24711 ft 436 kts
2026-05-06 12:59 41.03986 12.99462 24198 ft 434 kts
2026-05-06 13:00 41.06923 13.00373 23678 ft 432 kts
2026-05-06 13:00 41.09844 13.01256 23097 ft 430 kts
2026-05-06 13:00 41.12748 13.02125 22559 ft 426 kts
2026-05-06 13:00 41.15631 13.02989 22040 ft 423 kts
2026-05-06 13:01 41.18487 13.03847 21535 ft 419 kts
2026-05-06 13:01 41.21319 13.04698 21040 ft 415 kts
2026-05-06 13:01 41.24128 13.05541 20567 ft 413 kts
2026-05-06 13:01 41.26924 13.06381 20095 ft 411 kts 10°
2026-05-06 13:02 41.29720 13.07199 19573 ft 411 kts
2026-05-06 13:02 41.32542 13.07426 19045 ft 404 kts 351°
2026-05-06 13:02 41.35256 13.06643 18401 ft 398 kts 335°
2026-05-06 13:02 41.37697 13.05008 17790 ft 391 kts 325°
2026-05-06 13:03 41.40005 13.03135 17247 ft 386 kts 324°
2026-05-06 13:03 41.42284 13.01266 16742 ft 381 kts 324°
2026-05-06 13:03 41.44529 12.99440 16261 ft 377 kts 325°
2026-05-06 13:03 41.46011 12.98247 15965 ft 373 kts 325°
2026-05-06 13:04 41.48197 12.96502 15841 ft 359 kts 325°
2026-05-06 13:04 41.50312 12.94821 15690 ft 348 kts 325°
2026-05-06 13:04 41.53004 12.92682 15501 ft 333 kts 325°
2026-05-06 13:04 41.54911 12.91009 15252 ft 324 kts 317°
2026-05-06 13:05 41.56563 12.89026 14976 ft 316 kts 312°
2026-05-06 13:05 41.58128 12.86984 14648 ft 313 kts 311°
2026-05-06 13:05 41.59177 12.85609 14427 ft 312 kts 312°
2026-05-06 13:05 41.60730 12.83599 14092 ft 311 kts 313°
2026-05-06 13:06 41.62293 12.81611 13746 ft 309 kts 313°
2026-05-06 13:06 41.63856 12.79649 13388 ft 307 kts 313°
2026-05-06 13:06 41.65391 12.77729 13036 ft 306 kts 313°
2026-05-06 13:06 41.66941 12.75791 12693 ft 305 kts 313°
2026-05-06 13:07 41.68486 12.73858 12340 ft 303 kts 313°
2026-05-06 13:07 41.70015 12.71942 12019 ft 300 kts 313°
2026-05-06 13:07 41.71532 12.70040 11690 ft 298 kts 313°
2026-05-06 13:07 41.73041 12.68151 11371 ft 295 kts 313°
2026-05-06 13:08 41.74532 12.66276 11037 ft 293 kts 313°
2026-05-06 13:08 41.76014 12.64411 10714 ft 291 kts 313°
2026-05-06 13:08 41.77486 12.62558 10402 ft 290 kts 313°
2026-05-06 13:08 41.78944 12.60723 10201 ft 284 kts 313°
2026-05-06 13:09 41.80362 12.58941 10066 ft 276 kts 312°
2026-05-06 13:09 41.81718 12.57158 9803 ft 272 kts 310°
2026-05-06 13:09 41.83046 12.55358 9487 ft 271 kts 310°
2026-05-06 13:09 41.84364 12.53566 9194 ft 270 kts 310°
2026-05-06 13:10 41.85684 12.51779 8881 ft 269 kts 310°
2026-05-06 13:10 41.87001 12.49998 8544 ft 268 kts 310°
2026-05-06 13:10 41.88303 12.48241 8394 ft 261 kts 311°
2026-05-06 13:10 41.89590 12.46563 8278 ft 257 kts 317°
2026-05-06 13:11 41.91220 12.45508 8023 ft 265 kts 339°
2026-05-06 13:11 41.92996 12.44780 7678 ft 269 kts 340°
2026-05-06 13:11 41.94786 12.44065 7409 ft 268 kts 339°
2026-05-06 13:11 41.96578 12.43345 7203 ft 268 kts 340°
2026-05-06 13:12 41.98337 12.42631 7141 ft 260 kts 339°
2026-05-06 13:12 42.00041 12.41929 7056 ft 253 kts 339°
2026-05-06 13:12 42.01715 12.41237 6892 ft 251 kts 339°
2026-05-06 13:12 42.03377 12.40548 6701 ft 250 kts 338°
2026-05-06 13:13 42.05047 12.39852 6397 ft 252 kts 338°
2026-05-06 13:13 42.06714 12.39157 6133 ft 251 kts 337°
2026-05-06 13:13 42.08271 12.38211 5897 ft 240 kts 314°
2026-05-06 13:13 42.09170 12.36492 5843 ft 215 kts 283°
2026-05-06 13:14 42.09372 12.34591 5696 ft 201 kts 263°
2026-05-06 13:14 42.09074 12.32757 5412 ft 199 kts 245°
2026-05-06 13:14 42.08351 12.31203 5157 ft 196 kts 231°
2026-05-06 13:14 42.07530 12.29730 4906 ft 198 kts 231°
2026-05-06 13:15 42.06692 12.28225 4597 ft 202 kts 231°
2026-05-06 13:15 42.05861 12.26725 4428 ft 198 kts 230°
2026-05-06 13:15 42.05042 12.25252 4262 ft 195 kts 230°
2026-05-06 13:15 42.04225 12.23786 3975 ft 198 kts 230°
2026-05-06 13:16 42.03416 12.22330 3834 ft 193 kts 230°
2026-05-06 13:16 42.02598 12.20862 3539 ft 197 kts 229°
2026-05-06 13:16 42.01610 12.19743 3410 ft 185 kts 195°
2026-05-06 13:16 42.00353 12.19824 3258 ft 185 kts 168°
2026-05-06 13:17 41.99083 12.20206 3009 ft 188 kts 170°
2026-05-06 13:17 41.97804 12.20649 2756 ft 191 kts 167°
2026-05-06 13:17 41.96519 12.21165 2499 ft 194 kts 165°
2026-05-06 13:17 41.95223 12.21704 2238 ft 195 kts 165°
2026-05-06 13:18 41.93943 12.22242 1977 ft 189 kts 164°
2026-05-06 13:18 41.92726 12.22752 1726 ft 178 kts 164°
2026-05-06 13:18 41.91582 12.23232 1478 ft 165 kts 164°
2026-05-06 13:18 41.90549 12.23663 1282 ft 147 kts 163°
2026-05-06 13:19 41.89628 12.24048 1081 ft 132 kts 162°
2026-05-06 13:19 41.88762 12.24410 920 ft 128 kts 162°
2026-05-06 13:19 41.87911 12.24769 722 ft 130 kts 163°
2026-05-06 13:19 41.87041 12.25112 558 ft 131 kts 161°
2026-05-06 13:20 41.86160 12.25499 380 ft 137 kts 161°
2026-05-06 13:20 41.85255 12.25892 225 ft 136 kts 164°
2026-05-06 13:20 41.84339 12.26264 48 ft 138 kts 162°
2026-05-06 13:20 41.83486 12.26618 13 ft 116 kts 162°
2026-05-06 13:21 41.82829 12.26896 13 ft 82 kts 162°
2026-05-06 13:21 41.82384 12.27082 9 ft 58 kts 163°
2026-05-06 13:21 41.82030 12.27232 10 ft 49 kts 162°
2026-05-06 13:21 41.81742 12.27348 12 ft 38 kts 163°
2026-05-06 13:22 41.81547 12.27422 13 ft 24 kts 172°
2026-05-06 13:22 41.81395 12.27371 13 ft 22 kts 221°
2026-05-06 13:22 41.81306 12.27238 13 ft 19 kts 200°
2026-05-06 13:22 41.81178 12.27256 11 ft 19 kts 165°
2026-05-06 13:23 41.81056 12.27308 11 ft 18 kts 161°
2026-05-06 13:23 41.80937 12.27351 12 ft 17 kts 174°
2026-05-06 13:23 41.80820 12.27332 12 ft 17 kts 190°
2026-05-06 13:23 41.80709 12.27296 12 ft 16 kts 208°
2026-05-06 13:24 41.80644 12.27181 12 ft 16 kts 249°
2026-05-06 13:24 41.80607 12.27048 12 ft 15 kts 249°
2026-05-06 13:24 41.80570 12.26919 13 ft 15 kts 250°
2026-05-06 13:24 41.80532 12.26775 13 ft 18 kts 250°
2026-05-06 13:25 41.80489 12.26621 14 ft 17 kts 250°
2026-05-06 13:25 41.80448 12.26472 15 ft 17 kts 251°
2026-05-06 13:25 41.80378 12.26365 14 ft 16 kts 184°
2026-05-06 13:25 41.80272 12.26405 13 ft 16 kts 166°
2026-05-06 13:26 41.80171 12.26379 13 ft 15 kts 207°
2026-05-06 13:26 41.80078 12.26327 13 ft 14 kts 186°
2026-05-06 13:26 41.79984 12.26359 15 ft 14 kts 160°
2026-05-06 13:26 41.79914 12.26394 13 ft 8 kts 151°
2026-05-06 13:27 41.79914 12.26458 15 ft 8 kts 63°
2026-05-06 13:27 41.79920 12.26479 13 ft 0 kts 70°